| time (UTC) | temp C | wind direction | speed KPH | gust KPH | rain 1hr cm | rain 24hr cm | rain mn cm | humidity % | barometer mb |
| 20260903043038 | 27 | 242 | 11.3 | 19.3 | 0.00 | 0.00 | 0.00 | 68 | 1013.8 |
| 20260903041538 | 28 | 214 | 8.0 | 24.1 | 0.00 | 0.00 | 0.00 | 67 | 1013.9 |
| 20260903034533 | 28 | 245 | 6.4 | 16.1 | 0.00 | 0.00 | 0.00 | 65 | 1013.7 |
| 20260903033035 | 28 | 238 | 6.4 | 19.3 | 0.00 | 0.00 | 0.00 | 63 | 1013.6 |
| 20260903031534 | 29 | 262 | 8.0 | 22.5 | 0.00 | 0.00 | 0.00 | 62 | 1013.6 |
| 20260903023034 | 30 | 248 | 11.3 | 25.7 | 0.00 | 0.00 | 0.00 | 58 | 1013.5 |
| 20260903021536 | 30 | 274 | 14.5 | 30.6 | 0.00 | 0.00 | 0.00 | 57 | 1013.1 |
| 20260902230036 | 34 | 267 | 6.4 | 16.1 | 0.00 | 0.00 | 0.00 | 47 | 1011.6 |
| 20260902221543 | 37 | 236 | 8.0 | 20.9 | 0.00 | 0.00 | 0.00 | 40 | 1011.3 |
| 20260902220053 | 37 | 227 | 8.0 | 20.9 | 0.00 | 0.00 | 0.00 | 40 | 1011.4 |
| 20260902214533 | 37 | 248 | 12.9 | 22.5 | 0.00 | 0.00 | 0.00 | 39 | 1011.6 |
| 20260902211535 | 38 | 100 | 4.8 | 19.3 | 0.00 | 0.00 | 0.00 | 39 | 1011.9 |
| 20260902210037 | 37 | 219 | 9.7 | 20.9 | 0.00 | 0.00 | 0.00 | 40 | 1012.0 |
| 20260902203039 | 37 | 156 | 3.2 | 22.5 | 0.00 | 0.00 | 0.00 | 39 | 1012.5 |
| 20260902201544 | 36 | 218 | 12.9 | 24.1 | 0.00 | 0.00 | 0.00 | 41 | 1012.6 |
| 20260902200037 | 36 | 150 | 9.7 | 22.5 | 0.00 | 0.00 | 0.00 | 41 | 1012.8 |
| 20260902194536 | 37 | 159 | 6.4 | 22.5 | 0.00 | 0.00 | 0.00 | 41 | 1013.0 |
| 20260902193043 | 36 | 105 | 4.8 | 25.7 | 0.00 | 0.00 | 0.00 | 42 | 1013.3 |
| 20260902191536 | 36 | 138 | 9.7 | 19.3 | 0.00 | 0.00 | 0.00 | 44 | 1013.5 |
| 20260902183039 | 36 | 133 | 8.0 | 22.5 | 0.00 | 0.00 | 0.00 | 44 | 1014.2 |
| 20260902181536 | 35 | 211 | 6.4 | 14.5 | 0.00 | 0.00 | 0.00 | 45 | 1014.6 |
| 20260902180032 | 35 | 258 | 6.4 | 19.3 | 0.00 | 0.00 | 0.00 | 45 | 1015.2 |
| 20260902173035 | 34 | 173 | 4.8 | 19.3 | 0.00 | 0.00 | 0.00 | 50 | 1015.6 |
| 20260902171547 | 33 | 216 | 6.4 | 17.7 | 0.00 | 0.00 | 0.00 | 54 | 1015.9 |
| 20260902170034 | 33 | 279 | 8.0 | 14.5 | 0.00 | 0.00 | 0.00 | 52 | 1016.1 |
| 20260902133034 | 27 | 238 | 4.8 | 12.9 | 0.00 | 0.00 | 0.00 | 71 | 1016.4 |
| 20260902131541 | 26 | 300 | 6.4 | 12.9 | 0.00 | 0.00 | 0.00 | 72 | 1016.3 |
| 20260902130035 | 26 | 283 | 3.2 | 9.7 | 0.00 | 0.00 | 0.00 | 76 | 1016.3 |
| 20260902123042 | 25 | 244 | 1.6 | 6.4 | 0.00 | 0.00 | 0.00 | 77 | 1016.0 |
| 20260902121534 | 25 | 0 | 0.0 | 4.8 | 0.00 | 0.00 | 0.00 | 76 | 1015.9 |
| 20260902120032 | 25 | 236 | 0.0 | 4.8 | 0.00 | 0.00 | 0.00 | 76 | 1015.8 |
| 20260902114540 | 25 | 0 | 1.6 | 6.4 | 0.00 | 0.00 | 0.00 | 76 | 1015.9 |
| 20260902113037 | 25 | 234 | 0.0 | 3.2 | 0.00 | 0.00 | 0.00 | 75 | 1016.0 |
| 20260902111535 | 25 | 0 | 0.0 | 0.0 | 0.00 | 0.00 | 0.00 | 75 | 1016.0 |
| 20260902110042 | 26 | 0 | 0.0 | 0.0 | 0.00 | 0.00 | 0.00 | 74 | 1015.9 |
| 20260902104532 | 26 | 0 | 0.0 | 0.0 | 0.00 | 0.00 | 0.00 | 74 | 1015.8 |
| 20260902103034 | 26 | 0 | 0.0 | 3.2 | 0.00 | 0.00 | 0.00 | 73 | 1015.7 |
| 20260902100033 | 26 | 0 | 0.0 | 0.0 | 0.00 | 0.00 | 0.00 | 71 | 1015.8 |
| 20260902094535 | 26 | 0 | 0.0 | 0.0 | 0.00 | 0.00 | 0.00 | 70 | 1015.8 |
| 20260902090036 | 27 | 0 | 0.0 | 0.0 | 0.00 | 0.00 | 0.00 | 68 | 1015.5 |